TimeAKST,TemperatureF,Dew PointF,Humidity,Sea Level PressureIn,VisibilityMPH,Wind Direction,Wind SpeedMPH,Gust SpeedMPH,PrecipitationIn,Events,Conditions,WindDirDegrees,DateUTC
12:56 AM,30.0,28.9,96,30.20,9.0,ENE,10.4,-,0.01,Snow,Light Snow,60,2013-12-04 09:56:00
1:56 AM,30.9,30.0,96,30.19,9.0,ENE,12.7,-,0.01,Snow,Light Snow,60,2013-12-04 10:56:00
3:56 AM,33.1,30.9,92,30.15,10.0,ENE,9.2,-,0.02,Rain,Light Rain,60,2013-12-04 12:56:00
4:56 AM,33.1,32.0,96,30.12,10.0,ENE,10.4,-,0.01,Rain,Light Rain,60,2013-12-04 13:56:00
5:56 AM,33.1,32.0,96,30.10,10.0,ENE,10.4,-,0.01,,Overcast,60,2013-12-04 14:56:00
6:56 AM,35.1,33.1,92,30.09,10.0,East,11.5,-,N/A,,Overcast,80,2013-12-04 15:56:00
7:56 AM,35.1,33.1,92,30.08,10.0,East,9.2,-,N/A,,Overcast,80,2013-12-04 16:56:00
8:56 AM,36.0,33.1,89,30.08,10.0,ENE,9.2,-,N/A,,Overcast,70,2013-12-04 17:56:00
9:56 AM,35.1,33.1,92,30.08,10.0,ENE,8.1,-,N/A,,Overcast,70,2013-12-04 18:56:00
10:56 AM,35.1,33.1,92,30.07,10.0,ENE,9.2,-,0.00,,Overcast,60,2013-12-04 19:56:00
11:56 AM,36.0,33.1,89,30.05,10.0,ENE,10.4,-,N/A,,Overcast,60,2013-12-04 20:56:00
12:56 PM,37.0,33.1,86,30.03,10.0,ENE,11.5,-,N/A,,Mostly Cloudy,70,2013-12-04 21:56:00
1:56 PM,37.9,33.1,83,30.02,10.0,ENE,9.2,-,N/A,,Mostly Cloudy,70,2013-12-04 22:56:00
2:56 PM,37.9,33.1,83,29.99,10.0,ENE,10.4,-,N/A,,Overcast,70,2013-12-04 23:56:00
3:56 PM,36.0,33.1,89,29.98,10.0,ENE,8.1,-,N/A,,Overcast,70,2013-12-05 00:56:00
4:56 PM,37.0,33.1,86,29.96,10.0,ENE,8.1,-,0.00,Rain,Light Rain,60,2013-12-05 01:56:00
5:56 PM,35.1,34.0,96,29.96,9.0,ENE,6.9,-,0.03,Rain,Rain,70,2013-12-05 02:56:00
6:56 PM,36.0,35.1,97,29.95,10.0,East,8.1,-,0.10,Rain,Light Rain,80,2013-12-05 03:56:00
7:56 PM,36.0,36.0,100,29.95,10.0,ENE,9.2,-,0.00,,Overcast,70,2013-12-05 04:56:00
8:56 PM,37.0,36.0,96,29.94,10.0,East,8.1,-,0.00,Rain,Light Rain,90,2013-12-05 05:56:00
9:56 PM,37.0,36.0,96,29.93,10.0,East,8.1,-,0.00,Rain,Light Rain,80,2013-12-05 06:56:00
10:56 PM,37.9,36.0,93,29.93,10.0,East,5.8,-,0.01,Rain,Light Rain,80,2013-12-05 07:56:00
11:56 PM,37.9,37.9,100,29.94,10.0,East,5.8,-,0.02,Rain,Light Rain,90,2013-12-05 08:56:00